QPF
0.06 0.06 0.07 0.06 0.06 0.07 0.07 0.09 0.09 0.06 0.05 0.05 0.05 0.06 0.06 0.04 0.04 0.03 0.02 0.02 0.03 0.04 0.05 0.06 0.07 0.07 0.08 0.10 0.09 0.06 0.06 0.07 0.07 0.07 0.07 0.07 0.08 0.07
0.04 0.05 0.05 0.05 0.06 0.06 0.06 0.08 0.10 0.08 0.06 0.05 0.06 0.07 0.07 0.05 0.05 0.05 0.04 0.04 0.03 0.03 0.05 0.06 0.05 0.04 0.05 0.08 0.10 0.09 0.08 0.09 0.10 0.09 0.08 0.06 0.05 0.06
0.04 0.05 0.05 0.06 0.06 0.06 0.07 0.06 0.06 0.07 0.08 0.08 0.09 0.08 0.06 0.06 0.05 0.07 0.06 0.05 0.06 0.05 0.04 0.05 0.06 0.05 0.05 0.05 0.08 0.09 0.08 0.09 0.09 0.08 0.08 0.08 0.06 0.05
0.02 0.03 0.03 0.04 0.05 0.06 0.05 0.05 0.05 0.05 0.05 0.05 0.07 0.08 0.10 0.08 0.04 0.04 0.05 0.04 0.05 0.08 0.06 0.04 0.07 0.08 0.07 0.06 0.05 0.07 0.08 0.08 0.06 0.07 0.07 0.07 0.06 0.05
0.02 0.03 0.02 0.03 0.03 0.04 0.05 0.04 0.04 0.03 0.03 0.03 0.04 0.06 0.06 0.05 0.05 0.04 0.03 0.04 0.05 0.06 0.08 0.06 0.06 0.07 0.07 0.07 0.07 0.07 0.07 0.08 0.07 0.06 0.07 0.07 0.07 0.06
0.02 0.02 0.02 0.02 0.03 0.04 0.06 0.05 0.04 0.03 0.03 0.03 0.03 0.03 0.04 0.04 0.05 0.03 0.03 0.03 0.05 0.04 0.05 0.07 0.06 0.05 0.05 0.06 0.07 0.07 0.08 0.09 0.09 0.09 0.07 0.07 0.06 0.05
0.02 0.01 0.01 0.02 0.03 0.04 0.05 0.06 0.05 0.04 0.03 0.03 0.03 0.03 0.03 0.03 0.03 0.03 0.03 0.03 0.03 0.04 0.04 0.05 0.06 0.06 0.04 0.04 0.05 0.06 0.06 0.07 0.07 0.07 0.06 0.05 0.05 0.04
0.02 0.02 0.03 0.03 0.03 0.02 0.03 0.04 0.04 0.04 0.03 0.03 0.02 0.02 0.02 0.03 0.02 0.03 0.04 0.04 0.03 0.02 0.03 0.03 0.03 0.04 0.04 0.03 0.04 0.04 0.04 0.04 0.04 0.05 0.05 0.04 0.04 0.04
0.02 0.02 0.02 0.02 0.03 0.03 0.03 0.03 0.02 0.02 0.02 0.03 0.02 0.01 0.01 0.02 0.04 0.04 0.03 0.03 0.03 0.03 0.04 0.05 0.04 0.04 0.04 0.04 0.04 0.04 0.05 0.06 0.06 0.06 0.05 0.05 0.06 0.05
0.01 0.01 0.02 0.02 0.02 0.03 0.02 0.03 0.03 0.02 0.01 0.01 0.01 0.02 0.02 0.02 0.04 0.06 0.08 0.07 0.06 0.04 0.05 0.06 0.06 0.05 0.05 0.05 0.05 0.06 0.07 0.07 0.07 0.07 0.07 0.07 0.07 0.06
0.02 0.02 0.02 0.02 0.01 0.02 0.02 0.03 0.05 0.05 0.02 0.01 0.01 0.02 0.01 0.01 0.03 0.05 0.07 0.09 0.07 0.04 0.04 0.04 0.04 0.05 0.05 0.04 0.04 0.05 0.05 0.06 0.07 0.07 0.07 0.06 0.07 0.07
0.02 0.02 0.02 0.01 0.01 0.02 0.01 0.02 0.03 0.07 0.05 0.02 0.02 0.02 0.02 0.02 0.02 0.04 0.05 0.06 0.06 0.05 0.05 0.05 0.04 0.05 0.05 0.03 0.03 0.02 0.02 0.03 0.04 0.04 0.04 0.04 0.05 0.04
0.03 0.03 0.03 0.03 0.04 0.03 0.01 0.01 0.02 0.05 0.09 0.06 0.04 0.03 0.03 0.04 0.04 0.03 0.03 0.04 0.04 0.03 0.03 0.04 0.04 0.05 0.05 0.04 0.03 0.03 0.03 0.04 0.03 0.03 0.03 0.04 0.04 0.04
0.06 0.06 0.04 0.04 0.04 0.03 0.02 0.02 0.02 0.03 0.08 0.09 0.07 0.07 0.06 0.04 0.04 0.04 0.03 0.03 0.04 0.04 0.03 0.02 0.03 0.04 0.05 0.05 0.04 0.03 0.03 0.04 0.04 0.03 0.02 0.04 0.04 0.04
0.05 0.05 0.04 0.04 0.04 0.03 0.02 0.02 0.03 0.04 0.06 0.08 0.06 0.05 0.06 0.06 0.05 0.06 0.06 0.04 0.03 0.03 0.03 0.02 0.03 0.03 0.03 0.04 0.04 0.05 0.04 0.04 0.04 0.03 0.03 0.03 0.03 0.04
0.04 0.04 0.04 0.04 0.04 0.03 0.03 0.03 0.03 0.03 0.04 0.05 0.07 0.05 0.04 0.04 0.04 0.06 0.07 0.05 0.04 0.04 0.03 0.02 0.02 0.03 0.03 0.03 0.03 0.04 0.04 0.04 0.03 0.03 0.03 0.03 0.03 0.03
0.02 0.03 0.04 0.04 0.04 0.05 0.05 0.06 0.04 0.04 0.05 0.06 0.07 0.07 0.05 0.05 0.05 0.05 0.05 0.04 0.04 0.05 0.04 0.03 0.03 0.03 0.04 0.04 0.04 0.03 0.04 0.04 0.04 0.04 0.04 0.03 0.03 0.03
0.02 0.02 0.03 0.04 0.05 0.05 0.05 0.04 0.04 0.04 0.04 0.06 0.08 0.10 0.09 0.08 0.07 0.05 0.04 0.03 0.03 0.03 0.04 0.04 0.04 0.04 0.03 0.02 0.02 0.03 0.04 0.04 0.04 0.04 0.04 0.04 0.04 0.03
0.01 0.02 0.02 0.02 0.03 0.04 0.05 0.04 0.04 0.04 0.04 0.05 0.06 0.08 0.09 0.08 0.07 0.06 0.06 0.06 0.06 0.06 0.07 0.07 0.06 0.05 0.03 0.02 0.02 0.01 0.02 0.03 0.03 0.03 0.04 0.05 0.05 0.04
0.02 0.01 0.02 0.02 0.02 0.02 0.03 0.04 0.04 0.05 0.06 0.05 0.05 0.06 0.07 0.07 0.05 0.05 0.07 0.08 0.08 0.07 0.07 0.06 0.05 0.05 0.04 0.02 0.02 0.02 0.02 0.02 0.02 0.02 0.02 0.03 0.03 0.05
0.01 0.01 0.01 0.01 0.01 0.02 0.02 0.03 0.04 0.05 0.04 0.03 0.03 0.05 0.06 0.07 0.06 0.04 0.04 0.04 0.03 0.03 0.03 0.03 0.03 0.03 0.03 0.03 0.03 0.02 0.02 0.01 0.01 0.01 0.02 0.02 0.03 0.03
0.01 0.01 0.01 0.02 0.02 0.02 0.03 0.04 0.04 0.03 0.03 0.03 0.04 0.04 0.05 0.06 0.06 0.04 0.03 0.02 0.02 0.03 0.03 0.04 0.04 0.04 0.05 0.04 0.02 0.02 0.02 0.01 0.01 0.01 0.01 0.01 0.02 0.03
0.02 0.02 0.02 0.02 0.02 0.02 0.02 0.03 0.03 0.03 0.03 0.03 0.04 0.03 0.03 0.04 0.05 0.04 0.03 0.03 0.03 0.03 0.03 0.04 0.05 0.05 0.06 0.06 0.04 0.03 0.02 0.02 0.01 0.01 0.01 0.00 0.00 0.01
MSLP
1015.56 1015.43 1015.29 1015.14 1014.95 1014.73 1014.47 1014.20 1013.90 1013.62 1013.36 1013.14 1012.97 1012.85 1012.80 1012.81 1012.86 1012.95 1013.07 1013.21 1013.35 1013.49 1013.61 1013.71 1013.78 1013.80 1013.78 1013.70 1013.57 1013.39 1013.19 1012.96 1012.72 1012.49 1012.28 1012.08 1011.91 1011.76
1015.69 1015.54 1015.37 1015.19 1014.98 1014.75 1014.49 1014.21 1013.94 1013.68 1013.44 1013.25 1013.11 1013.01 1012.97 1012.96 1012.99 1013.06 1013.14 1013.23 1013.34 1013.45 1013.55 1013.64 1013.71 1013.75 1013.75 1013.70 1013.60 1013.46 1013.28 1013.07 1012.83 1012.59 1012.35 1012.11 1011.89 1011.68
1015.84 1015.66 1015.47 1015.26 1015.03 1014.78 1014.52 1014.26 1014.01 1013.77 1013.57 1013.41 1013.29 1013.21 1013.16 1013.15 1013.15 1013.17 1013.19 1013.23 1013.27 1013.32 1013.38 1013.44 1013.51 1013.56 1013.58 1013.58 1013.53 1013.44 1013.31 1013.13 1012.92 1012.69 1012.43 1012.17 1011.90 1011.63
1016.02 1015.82 1015.61 1015.39 1015.15 1014.90 1014.64 1014.38 1014.15 1013.94 1013.76 1013.62 1013.52 1013.45 1013.40 1013.36 1013.32 1013.28 1013.24 1013.20 1013.16 1013.14 1013.14 1013.17 1013.21 1013.26 1013.31 1013.34 1013.35 1013.32 1013.24 1013.11 1012.93 1012.71 1012.45 1012.16 1011.85 1011.54
1016.24 1016.03 1015.82 1015.59 1015.35 1015.10 1014.85 1014.60 1014.38 1014.18 1014.02 1013.89 1013.80 1013.72 1013.65 1013.58 1013.50 1013.39 1013.28 1013.16 1013.04 1012.95 1012.88 1012.85 1012.86 1012.90 1012.96 1013.02 1013.07 1013.08 1013.05 1012.96 1012.81 1012.60 1012.33 1012.02 1011.67 1011.31
1016.44 1016.25 1016.05 1015.83 1015.61 1015.37 1015.13 1014.89 1014.68 1014.49 1014.33 1014.20 1014.09 1014.00 1013.90 1013.79 1013.66 1013.50 1013.31 1013.12 1012.93 1012.76 1012.63 1012.54 1012.51 1012.53 1012.58 1012.65 1012.72 1012.76 1012.75 1012.68 1012.54 1012.33 1012.05 1011.71 1011.32 1010.92
1016.57 1016.40 1016.22 1016.04 1015.84 1015.63 1015.40 1015.18 1014.97 1014.78 1014.61 1014.47 1014.34 1014.22 1014.09 1013.94 1013.77 1013.56 1013.33 1013.07 1012.82 1012.59 1012.40 1012.27 1012.20 1012.18 1012.21 1012.27 1012.33 1012.37 1012.37 1012.29 1012.14 1011.91 1011.60 1011.23 1010.80 1010.35
1016.52 1016.39 1016.26 1016.12 1015.96 1015.78 1015.58 1015.38 1015.17 1014.98 1014.80 1014.63 1014.48 1014.33 1014.17 1014.00 1013.79 1013.55 1013.28 1012.99 1012.71 1012.44 1012.21 1012.04 1011.93 1011.88 1011.88 1011.91 1011.94 1011.96 1011.92 1011.82 1011.65 1011.38 1011.04 1010.62 1010.16 1009.67
1016.25 1016.16 1016.08 1015.99 1015.87 1015.74 1015.58 1015.39 1015.20 1015.00 1014.81 1014.62 1014.45 1014.28 1014.09 1013.90 1013.68 1013.42 1013.15 1012.85 1012.56 1012.28 1012.03 1011.84 1011.70 1011.61 1011.57 1011.56 1011.56 1011.53 1011.46 1011.32 1011.10 1010.80 1010.42 1009.97 1009.47 1008.96
1015.74 1015.69 1015.65 1015.60 1015.54 1015.45 1015.32 1015.16 1014.98 1014.79 1014.59 1014.40 1014.20 1014.02 1013.83 1013.62 1013.40 1013.16 1012.90 1012.62 1012.34 1012.07 1011.83 1011.63 1011.47 1011.36 1011.29 1011.24 1011.18 1011.11 1010.99 1010.80 1010.55 1010.21 1009.81 1009.34 1008.83 1008.30
1015.04 1015.01 1015.00 1015.00 1014.97 1014.92 1014.82 1014.69 1014.53 1014.34 1014.14 1013.95 1013.75 1013.56 1013.37 1013.18 1012.97 1012.76 1012.52 1012.28 1012.03 1011.79 1011.57 1011.38 1011.22 1011.09 1010.99 1010.90 1010.81 1010.69 1010.52 1010.30 1010.02 1009.67 1009.26 1008.80 1008.30 1007.78
1014.24 1014.22 1014.23 1014.24 1014.23 1014.20 1014.12 1014.01 1013.86 1013.69 1013.50 1013.31 1013.12 1012.94 1012.77 1012.59 1012.42 1012.23 1012.04 1011.84 1011.63 1011.43 1011.24 1011.07 1010.92 1010.79 1010.67 1010.55 1010.41 1010.26 1010.06 1009.82 1009.53 1009.19 1008.80 1008.37 1007.91 1007.43
1013.45 1013.42 1013.41 1013.41 1013.40 1013.36 1013.29 1013.19 1013.06 1012.90 1012.73 1012.55 1012.38 1012.22 1012.07 1011.92 1011.77 1011.63 1011.48 1011.32 1011.17 1011.01 1010.86 1010.71 1010.57 1010.44 1010.31 1010.16 1010.01 1009.82 1009.61 1009.37 1009.08 1008.77 1008.42 1008.05 1007.66 1007.25
1012.75 1012.68 1012.64 1012.60 1012.55 1012.49 1012.41 1012.30 1012.17 1012.03 1011.88 1011.72 1011.58 1011.44 1011.32 1011.20 1011.09 1010.99 1010.88 1010.77 1010.66 1010.55 1010.44 1010.32 1010.20 1010.07 1009.93 1009.77 1009.60 1009.40 1009.17 1008.93 1008.67 1008.40 1008.11 1007.82 1007.51 1007.20
1012.18 1012.06 1011.94 1011.84 1011.74 1011.64 1011.52 1011.40 1011.27 1011.13 1011.00 1010.87 1010.75 1010.65 1010.56 1010.48 1010.41 1010.34 1010.28 1010.22 1010.16 1010.09 1010.02 1009.93 1009.83 1009.72 1009.57 1009.41 1009.21 1009.00 1008.77 1008.53 1008.29 1008.06 1007.84 1007.63 1007.42 1007.20
1011.72 1011.52 1011.33 1011.15 1010.97 1010.81 1010.65 1010.51 1010.37 1010.24 1010.12 1010.02 1009.94 1009.87 1009.81 1009.76 1009.73 1009.71 1009.70 1009.69 1009.68 1009.66 1009.63 1009.59 1009.52 1009.42 1009.28 1009.11 1008.90 1008.67 1008.43 1008.18 1007.96 1007.75 1007.58 1007.44 1007.32 1007.21
1011.31 1011.03 1010.75 1010.48 1010.23 1010.01 1009.80 1009.63 1009.48 1009.36 1009.26 1009.19 1009.13 1009.09 1009.07 1009.06 1009.07 1009.09 1009.13 1009.17 1009.22 1009.26 1009.30 1009.31 1009.28 1009.21 1009.08 1008.91 1008.69 1008.44 1008.17 1007.91 1007.67 1007.48 1007.33 1007.24 1007.19 1007.15
1010.88 1010.53 1010.16 1009.81 1009.49 1009.21 1008.97 1008.77 1008.62 1008.50 1008.42 1008.37 1008.34 1008.33 1008.33 1008.36 1008.40 1008.47 1008.55 1008.66 1008.77 1008.89 1008.99 1009.07 1009.10 1009.07 1008.98 1008.81 1008.59 1008.31 1008.01 1007.72 1007.45 1007.24 1007.09 1007.01 1006.99 1007.01
1010.39 1009.96 1009.54 1009.13 1008.76 1008.43 1008.17 1007.96 1007.80 1007.69 1007.62 1007.58 1007.57 1007.57 1007.60 1007.64 1007.71 1007.81 1007.95 1008.11 1008.30 1008.50 1008.69 1008.85 1008.95 1008.98 1008.93 1008.79 1008.56 1008.27 1007.94 1007.60 1007.28 1007.03 1006.84 1006.75 1006.73 1006.77
1009.82 1009.35 1008.88 1008.44 1008.05 1007.71 1007.44 1007.23 1007.08 1006.97 1006.91 1006.87 1006.85 1006.85 1006.87 1006.91 1006.99 1007.11 1007.28 1007.50 1007.76 1008.04 1008.31 1008.56 1008.76 1008.86 1008.87 1008.76 1008.55 1008.25 1007.89 1007.51 1007.14 1006.83 1006.59 1006.45 1006.41 1006.44
1009.20 1008.72 1008.25 1007.81 1007.42 1007.10 1006.84 1006.65 1006.50 1006.40 1006.32 1006.27 1006.22 1006.19 1006.17 1006.19 1006.25 1006.37 1006.55 1006.81 1007.12 1007.47 1007.83 1008.17 1008.45 1008.63 1008.71 1008.65 1008.47 1008.17 1007.80 1007.38 1006.97 1006.61 1006.31 1006.13 1006.04 1006.04
1008.59 1008.13 1007.69 1007.29 1006.94 1006.66 1006.43 1006.26 1006.13 1006.02 1005.92 1005.82 1005.72 1005.63 1005.55 1005.51 1005.52 1005.60 1005.77 1006.03 1006.37 1006.76 1007.19 1007.60 1007.96 1008.23 1008.37 1008.38 1008.24 1007.97 1007.60 1007.17 1006.73 1006.33 1005.99 1005.75 1005.62 1005.58
1008.04 1007.64 1007.26 1006.93 1006.65 1006.42 1006.24 1006.10 1005.97 1005.85 1005.71 1005.55 1005.38 1005.20 1005.03 1004.90 1004.83 1004.84 1004.96 1005.19 1005.53 1005.94 1006.40 1006.86 1007.28 1007.61 1007.82 1007.89 1007.80 1007.57 1007.23 1006.82 1006.38 1005.96 1005.60 1005.33 1005.16 1005.09
Thickness
5734 5733 5733 5735 5735 5735 5733 5730 5726 5723 5724 5725 5726 5728 5727 5725 5722 5722 5721 5718 5715 5714 5713 5712 5712 5711 5710 5709 5708 5706 5705 5704 5704 5702 5701 5700 5699 5697
5729 5728 5728 5731 5730 5730 5729 5728 5726 5722 5719 5722 5722 5723 5721 5721 5718 5717 5716 5714 5712 5711 5710 5709 5709 5708 5707 5706 5705 5704 5703 5702 5701 5700 5698 5698 5696 5695
5723 5723 5722 5723 5724 5724 5724 5723 5721 5719 5713 5715 5716 5716 5713 5712 5712 5712 5712 5711 5710 5708 5707 5706 5705 5704 5703 5703 5702 5701 5700 5699 5698 5697 5696 5695 5693 5691
5716 5716 5716 5718 5716 5717 5716 5716 5715 5713 5710 5707 5708 5708 5706 5706 5706 5706 5707 5708 5707 5704 5703 5701 5701 5700 5699 5698 5698 5697 5697 5696 5695 5693 5692 5691 5689 5688
5710 5709 5710 5710 5709 5709 5708 5709 5708 5708 5706 5704 5703 5702 5701 5701 5700 5701 5702 5701 5702 5701 5699 5697 5696 5695 5694 5694 5693 5692 5692 5691 5690 5690 5688 5687 5686 5684
5704 5704 5704 5703 5702 5702 5702 5701 5700 5699 5698 5697 5697 5696 5695 5695 5694 5695 5694 5695 5695 5697 5695 5694 5692 5690 5690 5689 5688 5687 5686 5686 5685 5685 5684 5682 5681 5680
5698 5698 5698 5696 5696 5695 5696 5695 5694 5693 5692 5692 5691 5690 5689 5687 5688 5689 5688 5688 5688 5689 5689 5689 5688 5688 5686 5684 5683 5681 5680 5680 5679 5679 5678 5678 5676 5675
5692 5692 5693 5691 5689 5687 5687 5686 5685 5686 5686 5685 5685 5683 5681 5682 5682 5683 5681 5680 5680 5683 5682 5683 5684 5683 5682 5680 5678 5677 5675 5674 5674 5673 5673 5673 5672 5670
5687 5687 5689 5689 5684 5683 5681 5680 5679 5678 5677 5678 5678 5677 5677 5677 5676 5676 5675 5675 5675 5676 5675 5675 5677 5677 5677 5674 5672 5671 5669 5668 5668 5668 5668 5667 5666 5665
5683 5682 5681 5680 5679 5677 5677 5676 5675 5674 5672 5672 5672 5671 5671 5670 5669 5669 5669 5668 5669 5670 5669 5668 5670 5671 5672 5670 5666 5665 5664 5664 5663 5663 5662 5662 5661 5660
5678 5677 5676 5674 5671 5669 5669 5669 5668 5668 5666 5665 5664 5662 5661 5661 5661 5663 5663 5662 5663 5664 5665 5663 5664 5665 5665 5665 5662 5660 5659 5658 5658 5657 5657 5657 5656 5655
5673 5672 5668 5667 5664 5661 5662 5662 5661 5661 5662 5661 5658 5656 5656 5655 5654 5655 5657 5657 5658 5658 5659 5657 5658 5658 5658 5660 5659 5657 5654 5653 5653 5652 5652 5651 5650 5651
5669 5668 5666 5659 5656 5654 5654 5656 5655 5654 5655 5655 5654 5653 5651 5651 5650 5650 5651 5652 5652 5654 5655 5652 5653 5653 5653 5653 5654 5654 5653 5651 5649 5648 5646 5645 5645 5645
5662 5662 5659 5653 5650 5649 5648 5648 5647 5646 5650 5650 5649 5648 5647 5646 5646 5646 5645 5646 5646 5647 5647 5647 5648 5647 5648 5648 5647 5648 5647 5646 5646 5645 5644 5641 5640 5639
5655 5651 5649 5646 5644 5644 5642 5641 5640 5643 5644 5643 5642 5642 5642 5641 5641 5640 5640 5640 5640 5641 5640 5639 5641 5642 5643 5643 5643 5643 5642 5641 5640 5639 5639 5638 5637 5635
5647 5645 5642 5640 5639 5638 5638 5637 5637 5639 5638 5638 5637 5636 5636 5635 5635 5635 5634 5635 5635 5635 5634 5633 5633 5634 5635 5636 5637 5637 5637 5635 5635 5633 5632 5632 5632 5632
5640 5640 5640 5639 5637 5637 5636 5635 5634 5633 5631 5631 5631 5630 5630 5629 5629 5629 5628 5628 5628 5628 5628 5627 5627 5627 5628 5628 5629 5631 5631 5631 5629 5627 5624 5626 5627 5627
5633 5636 5635 5634 5633 5633 5632 5630 5629 5627 5626 5625 5625 5624 5623 5622 5623 5623 5622 5622 5622 5623 5622 5622 5622 5621 5622 5623 5620 5622 5624 5624 5623 5620 5619 5620 5620 5621
5629 5631 5630 5629 5628 5627 5626 5625 5624 5622 5621 5621 5620 5619 5618 5617 5617 5616 5616 5616 5616 5617 5617 5617 5617 5617 5616 5618 5617 5614 5616 5617 5616 5615 5614 5614 5614 5614
5628 5627 5626 5624 5623 5622 5621 5619 5618 5617 5616 5615 5614 5614 5613 5612 5611 5611 5611 5610 5611 5611 5611 5611 5612 5612 5611 5611 5611 5610 5608 5610 5610 5609 5609 5609 5608 5606
5624 5622 5621 5620 5618 5617 5616 5614 5612 5611 5610 5609 5609 5608 5607 5606 5606 5606 5606 5604 5604 5606 5606 5606 5605 5603 5604 5603 5603 5605 5605 5601 5601 5601 5601 5601 5602 5602
5618 5616 5615 5614 5612 5611 5609 5608 5607 5606 5605 5604 5603 5603 5602 5601 5600 5599 5600 5601 5600 5601 5601 5601 5599 5599 5598 5597 5598 5598 5598 5597 5594 5593 5592 5592 5593 5594
5612 5610 5609 5608 5606 5605 5605 5604 5602 5602 5600 5599 5598 5597 5596 5595 5595 5595 5596 5596 5595 5595 5595 5594 5594 5593 5592 5592 5592 5593 5592 5592 5592 5591 5590 5587 5584 5583